Time,TemperatureF,DewpointF,PressureIn,WindDirection,WindDirectionDegrees,WindSpeedMPH,WindSpeedGustMPH,Humidity,HourlyPrecipIn,Conditions,Clouds,dailyrainin,SoftwareType,DateUTC
2013-08-04 00:00:00,60.9,59.2,30.11,NNE,22,0.0,0.0,94,0.00,,---,0.00,VWS V14.01,2013-08-04 05:00:00,
2013-08-04 00:01:00,60.9,59.2,30.11,NNE,22,0.0,0.0,94,0.00,,---,0.00,VWS V14.01,2013-08-04 05:01:00,
2013-08-04 00:06:00,60.9,59.5,30.12,NNE,22,0.0,0.0,95,0.00,,---,0.00,VWS V14.01,2013-08-04 05:06:00,
2013-08-04 00:11:00,60.9,59.5,30.12,NNE,22,0.0,0.0,95,0.00,,---,0.00,VWS V14.01,2013-08-04 05:11:00,
2013-08-04 00:16:00,60.9,59.5,30.12,NNE,22,0.0,0.0,95,0.00,,---,0.00,VWS V14.01,2013-08-04 05:16:00,
2013-08-04 00:21:00,60.9,59.5,30.12,NNE,22,0.0,0.0,95,0.00,,---,0.00,VWS V14.01,2013-08-04 05:21:00,
2013-08-04 00:26:00,60.8,59.4,30.12,NNE,22,0.0,0.0,95,0.00,,---,0.00,VWS V14.01,2013-08-04 05:26:00,
2013-08-04 00:30:00,60.8,59.4,30.12,NNE,22,0.0,0.0,95,0.00,,---,0.00,VWS V14.01,2013-08-04 05:30:00,
2013-08-04 00:31:00,60.8,59.4,30.12,NNE,22,0.0,0.0,95,0.00,,---,0.00,VWS V14.01,2013-08-04 05:31:00,
2013-08-04 00:36:00,60.8,59.4,30.12,NNE,22,0.0,0.0,95,0.00,,---,0.00,VWS V14.01,2013-08-04 05:36:00,
2013-08-04 00:41:00,60.7,59.3,30.12,NNE,22,0.0,1.0,95,0.00,,---,0.00,VWS V14.01,2013-08-04 05:41:00,
2013-08-04 00:46:00,60.7,59.3,30.12,NNE,22,1.0,1.0,95,0.00,,---,0.00,VWS V14.01,2013-08-04 05:46:00,
2013-08-04 00:51:00,60.6,59.2,30.12,NNE,22,0.0,1.0,95,0.00,,---,0.00,VWS V14.01,2013-08-04 05:51:00,
2013-08-04 00:56:00,60.6,59.2,30.12,NNE,22,0.0,1.0,95,0.00,,---,0.00,VWS V14.01,2013-08-04 05:56:00,
2013-08-04 01:00:00,60.6,59.2,30.12,NNE,22,0.0,1.0,95,0.00,,---,0.00,VWS V14.01,2013-08-04 06:00:00,
2013-08-04 01:01:00,60.6,59.2,30.12,NNE,22,0.0,0.0,95,0.00,,---,0.00,VWS V14.01,2013-08-04 06:01:00,
2013-08-04 01:06:00,60.5,59.1,30.12,NNE,22,0.0,0.0,95,0.00,,---,0.00,VWS V14.01,2013-08-04 06:06:00,
2013-08-04 01:11:00,60.5,59.1,30.12,NNE,22,0.0,0.0,95,0.00,,---,0.00,VWS V14.01,2013-08-04 06:11:00,
2013-08-04 01:16:00,60.4,59.0,30.12,NNE,22,0.0,0.0,95,0.00,,---,0.00,VWS V14.01,2013-08-04 06:16:00,
2013-08-04 01:21:00,60.3,58.9,30.12,NNE,22,0.0,0.0,95,0.00,,---,0.00,VWS V14.01,2013-08-04 06:21:00,
2013-08-04 01:26:00,60.2,58.8,30.12,NNE,22,0.0,0.0,95,0.00,,---,0.00,VWS V14.01,2013-08-04 06:26:00,
2013-08-04 01:30:00,60.2,58.8,30.12,NNE,22,0.0,0.0,95,0.00,,---,0.00,VWS V14.01,2013-08-04 06:30:00,
2013-08-04 01:31:00,60.1,58.7,30.12,NNE,22,0.0,0.0,95,0.00,,---,0.00,VWS V14.01,2013-08-04 06:31:00,
2013-08-04 01:36:00,60.1,58.7,30.12,NNE,22,0.0,0.0,95,0.00,,---,0.00,VWS V14.01,2013-08-04 06:36:00,
2013-08-04 01:41:00,60.1,58.7,30.13,NNE,22,0.0,1.0,95,0.00,,---,0.00,VWS V14.01,2013-08-04 06:41:00,
2013-08-04 01:46:00,60.0,58.6,30.12,NNE,22,0.0,1.0,95,0.00,,---,0.00,VWS V14.01,2013-08-04 06:46:00,
2013-08-04 01:51:00,60.0,58.6,30.13,NNE,22,0.0,1.0,95,0.00,,---,0.00,VWS V14.01,2013-08-04 06:51:00,
2013-08-04 01:56:00,59.9,58.5,30.13,NNE,22,0.0,1.0,95,0.00,,---,0.00,VWS V14.01,2013-08-04 06:56:00,
2013-08-04 02:00:00,59.9,58.5,30.13,NNE,22,0.0,1.0,95,0.00,,---,0.00,VWS V14.01,2013-08-04 07:00:00,
2013-08-04 02:01:00,59.8,58.4,30.13,NNE,22,0.0,0.0,95,0.00,,---,0.00,VWS V14.01,2013-08-04 07:01:00,
2013-08-04 02:06:00,59.8,58.4,30.13,NNE,22,0.0,0.0,95,0.00,,---,0.00,VWS V14.01,2013-08-04 07:06:00,
2013-08-04 02:11:00,59.7,58.3,30.13,NNE,22,0.0,0.0,95,0.00,,---,0.00,VWS V14.01,2013-08-04 07:11:00,
2013-08-04 02:16:00,59.7,58.3,30.13,NNE,22,0.0,0.0,95,0.00,,---,0.00,VWS V14.01,2013-08-04 07:16:00,
2013-08-04 02:21:00,59.6,58.2,30.13,NNE,22,0.0,0.0,95,0.00,,---,0.00,VWS V14.01,2013-08-04 07:21:00,
2013-08-04 02:26:00,59.6,58.2,30.13,NNE,22,0.0,0.0,95,0.00,,---,0.00,VWS V14.01,2013-08-04 07:26:00,
2013-08-04 02:30:00,59.5,58.1,30.12,NNE,22,0.0,0.0,95,0.00,,---,0.00,VWS V14.01,2013-08-04 07:30:00,
2013-08-04 02:31:00,59.5,58.1,30.12,NNE,22,0.0,0.0,95,0.00,,---,0.00,VWS V14.01,2013-08-04 07:31:00,
2013-08-04 02:36:00,59.5,58.1,30.13,NNE,22,0.0,0.0,95,0.00,,---,0.00,VWS V14.01,2013-08-04 07:36:00,
2013-08-04 02:41:00,59.3,57.9,30.13,NNE,22,0.0,0.0,95,0.00,,---,0.00,VWS V14.01,2013-08-04 07:41:00,
2013-08-04 02:46:00,59.1,57.7,30.13,NNE,22,0.0,0.0,95,0.00,,---,0.00,VWS V14.01,2013-08-04 07:46:00,
2013-08-04 02:51:00,59.0,57.6,30.13,NNE,22,0.0,2.0,95,0.00,,---,0.00,VWS V14.01,2013-08-04 07:51:00,
2013-08-04 02:56:00,59.0,57.6,30.13,NNE,22,0.0,2.0,95,0.00,,---,0.00,VWS V14.01,2013-08-04 07:56:00,
2013-08-04 03:00:00,59.0,57.6,30.12,NNE,22,0.0,2.0,95,0.00,,---,0.00,VWS V14.01,2013-08-04 08:00:00,
2013-08-04 03:01:00,59.0,57.6,30.12,NNE,22,0.0,0.0,95,0.00,,---,0.00,VWS V14.01,2013-08-04 08:01:00,
2013-08-04 03:06:00,59.0,57.9,30.12,NNE,22,0.0,0.0,96,0.00,,---,0.00,VWS V14.01,2013-08-04 08:06:00,
2013-08-04 03:11:00,59.0,57.9,30.12,NNE,22,0.0,0.0,96,0.00,,---,0.00,VWS V14.01,2013-08-04 08:11:00,
2013-08-04 03:16:00,59.0,57.9,30.12,NNE,22,0.0,0.0,96,0.00,,---,0.00,VWS V14.01,2013-08-04 08:16:00,
2013-08-04 03:21:00,59.0,57.9,30.12,NNE,22,0.0,0.0,96,0.00,,---,0.00,VWS V14.01,2013-08-04 08:21:00,
2013-08-04 03:26:00,59.0,57.6,30.12,NNE,22,0.0,1.0,95,0.00,,---,0.00,VWS V14.01,2013-08-04 08:26:00,
2013-08-04 03:30:00,59.0,57.9,30.11,NNE,22,0.0,1.0,96,0.00,,---,0.00,VWS V14.01,2013-08-04 08:30:00,
2013-08-04 03:31:00,59.0,57.9,30.11,NNE,22,0.0,0.0,96,0.00,,---,0.00,VWS V14.01,2013-08-04 08:31:00,
2013-08-04 03:36:00,59.0,57.9,30.12,NNE,22,0.0,1.0,96,0.00,,---,0.00,VWS V14.01,2013-08-04 08:36:00,
2013-08-04 03:41:00,59.0,57.9,30.12,NNE,22,0.0,1.0,96,0.00,,---,0.00,VWS V14.01,2013-08-04 08:41:00,
2013-08-04 03:45:00,59.0,57.9,30.12,NNE,22,0.0,1.0,96,0.00,,---,0.00,VWS V14.01,2013-08-04 08:45:00,
2013-08-04 03:51:00,59.0,57.9,30.12,NNE,22,0.0,1.0,96,0.00,,---,0.00,VWS V14.01,2013-08-04 08:51:00,
2013-08-04 03:56:00,59.0,57.9,30.11,NNE,22,0.0,1.0,96,0.00,,---,0.00,VWS V14.01,2013-08-04 08:56:00,
2013-08-04 04:00:00,59.0,57.9,30.11,NNE,22,0.0,0.0,96,0.00,,---,0.00,VWS V14.01,2013-08-04 09:00:00,
2013-08-04 04:05:00,59.0,57.9,30.11,NNE,22,0.0,0.0,96,0.00,,---,0.00,VWS V14.01,2013-08-04 09:05:00,
2013-08-04 04:11:00,59.0,57.9,30.11,NNE,22,0.0,0.0,96,0.00,,---,0.00,VWS V14.01,2013-08-04 09:11:00,
2013-08-04 04:16:00,59.0,57.9,30.11,NNE,22,0.0,0.0,96,0.00,,---,0.00,VWS V14.01,2013-08-04 09:16:00,
2013-08-04 04:21:00,59.0,57.9,30.12,NNE,22,0.0,0.0,96,0.00,,---,0.00,VWS V14.01,2013-08-04 09:21:00,
2013-08-04 04:26:00,58.7,57.6,30.12,NNE,22,0.0,0.0,96,0.00,,---,0.00,VWS V14.01,2013-08-04 09:26:00,
2013-08-04 04:30:00,58.7,57.6,30.12,NNE,22,0.0,0.0,96,0.00,,---,0.00,VWS V14.01,2013-08-04 09:30:00,
2013-08-04 04:31:00,58.6,57.5,30.12,NNE,22,0.0,0.0,96,0.00,,---,0.00,VWS V14.01,2013-08-04 09:31:00,
2013-08-04 04:36:00,58.6,57.5,30.13,NNE,22,0.0,0.0,96,0.00,,---,0.00,VWS V14.01,2013-08-04 09:36:00,
2013-08-04 04:41:00,58.4,57.3,30.13,NNE,22,0.0,0.0,96,0.00,,---,0.00,VWS V14.01,2013-08-04 09:41:00,
2013-08-04 04:46:00,58.4,57.3,30.13,NNE,22,0.0,0.0,96,0.00,,---,0.00,VWS V14.01,2013-08-04 09:46:00,
2013-08-04 04:51:00,58.3,57.2,30.13,NNE,22,0.0,0.0,96,0.00,,---,0.00,VWS V14.01,2013-08-04 09:51:00,
2013-08-04 04:56:00,58.3,57.2,30.13,NNE,22,0.0,0.0,96,0.00,,---,0.00,VWS V14.01,2013-08-04 09:56:00,
2013-08-04 05:00:00,58.1,57.0,30.12,NNE,22,0.0,0.0,96,0.00,,---,0.00,VWS V14.01,2013-08-04 10:00:00,
2013-08-04 05:05:00,58.1,57.0,30.13,NNE,22,0.0,0.0,96,0.00,,---,0.00,VWS V14.01,2013-08-04 10:05:00,
2013-08-04 05:10:00,58.0,56.9,30.13,NNE,22,0.0,0.0,96,0.00,,---,0.00,VWS V14.01,2013-08-04 10:10:00,
2013-08-04 05:16:00,58.0,56.9,30.13,NNE,22,0.0,0.0,96,0.00,,---,0.00,VWS V14.01,2013-08-04 10:16:00,
2013-08-04 05:21:00,57.9,56.8,30.14,NNE,22,0.0,0.0,96,0.00,,---,0.00,VWS V14.01,2013-08-04 10:21:00,
2013-08-04 05:26:00,57.8,56.7,30.14,NNE,22,0.0,0.0,96,0.00,,---,0.00,VWS V14.01,2013-08-04 10:26:00,
2013-08-04 05:30:00,57.8,56.7,30.14,NNE,22,0.0,0.0,96,0.00,,---,0.00,VWS V14.01,2013-08-04 10:30:00,
2013-08-04 05:31:00,57.8,56.7,30.14,NNE,22,0.0,0.0,96,0.00,,---,0.00,VWS V14.01,2013-08-04 10:31:00,
2013-08-04 05:36:00,57.7,56.6,30.14,NNE,22,0.0,0.0,96,0.00,,---,0.00,VWS V14.01,2013-08-04 10:36:00,
2013-08-04 05:41:00,57.5,56.4,30.14,NNE,22,0.0,0.0,96,0.00,,---,0.00,VWS V14.01,2013-08-04 10:41:00,
2013-08-04 05:46:00,57.3,56.2,30.15,NNE,22,0.0,0.0,96,0.00,,---,0.00,VWS V14.01,2013-08-04 10:46:00,
2013-08-04 05:51:00,57.2,56.1,30.15,NNE,22,0.0,0.0,96,0.00,,---,0.00,VWS V14.01,2013-08-04 10:51:00,
2013-08-04 05:56:00,57.1,56.0,30.15,NNE,22,0.0,0.0,96,0.00,,---,0.00,VWS V14.01,2013-08-04 10:56:00,
2013-08-04 06:00:00,57.1,56.0,30.15,NNE,22,0.0,0.0,96,0.00,,---,0.00,VWS V14.01,2013-08-04 11:00:00,
2013-08-04 06:06:00,57.0,55.9,30.15,NNE,22,0.0,0.0,96,0.00,,---,0.00,VWS V14.01,2013-08-04 11:06:00,
2013-08-04 06:11:00,56.9,55.8,30.15,NNE,22,0.0,0.0,96,0.00,,---,0.00,VWS V14.01,2013-08-04 11:11:00,
2013-08-04 06:16:00,56.8,55.7,30.15,NNE,22,0.0,0.0,96,0.00,,---,0.00,VWS V14.01,2013-08-04 11:16:00,
2013-08-04 06:20:00,56.8,55.7,30.16,NNE,22,0.0,0.0,96,0.00,,---,0.00,VWS V14.01,2013-08-04 11:20:00,
2013-08-04 06:26:00,56.7,55.6,30.16,NNE,22,0.0,0.0,96,0.00,,---,0.00,VWS V14.01,2013-08-04 11:26:00,
2013-08-04 06:30:00,56.7,55.6,30.16,NNE,22,0.0,0.0,96,0.00,,---,0.00,VWS V14.01,2013-08-04 11:30:00,
2013-08-04 06:31:00,56.6,55.5,30.16,NNE,22,0.0,0.0,96,0.00,,---,0.00,VWS V14.01,2013-08-04 11:31:00,
2013-08-04 06:36:00,56.7,55.6,30.16,NNE,22,0.0,0.0,96,0.00,,---,0.00,VWS V14.01,2013-08-04 11:36:00,
2013-08-04 06:40:00,56.8,55.7,30.16,NNE,22,0.0,0.0,96,0.00,,---,0.00,VWS V14.01,2013-08-04 11:40:00,
2013-08-04 06:45:00,56.8,55.7,30.15,NNE,22,0.0,0.0,96,0.00,,---,0.00,VWS V14.01,2013-08-04 11:45:00,
2013-08-04 06:50:00,56.8,55.7,30.15,NNE,22,0.0,0.0,96,0.00,,---,0.00,VWS V14.01,2013-08-04 11:50:00,
2013-08-04 06:55:00,56.9,55.8,30.15,NNE,22,0.0,0.0,96,0.00,,---,0.00,VWS V14.01,2013-08-04 11:55:00,
2013-08-04 07:00:00,57.0,55.9,30.15,NNE,22,0.0,0.0,96,0.00,,---,0.00,VWS V14.01,2013-08-04 12:00:00,
2013-08-04 07:05:00,57.1,56.0,30.15,NNE,22,0.0,0.0,96,0.00,,---,0.00,VWS V14.01,2013-08-04 12:05:00,
2013-08-04 07:10:00,57.3,56.2,30.15,NNE,22,0.0,1.0,96,0.00,,---,0.00,VWS V14.01,2013-08-04 12:10:00,
2013-08-04 07:15:00,57.7,56.9,30.15,NNE,22,0.0,1.0,97,0.00,,---,0.00,VWS V14.01,2013-08-04 12:15:00,
2013-08-04 07:20:00,58.0,57.2,30.15,NNE,22,0.0,1.0,97,0.00,,---,0.00,VWS V14.01,2013-08-04 12:20:00,
2013-08-04 07:25:00,58.4,57.6,30.15,NNE,22,0.0,1.0,97,0.00,,---,0.00,VWS V14.01,2013-08-04 12:25:00,
2013-08-04 07:30:00,58.8,58.0,30.15,NNE,22,0.0,0.0,97,0.00,,---,0.00,VWS V14.01,2013-08-04 12:30:00,
2013-08-04 07:35:00,59.0,58.2,30.15,NNE,22,0.0,2.0,97,0.00,,---,0.00,VWS V14.01,2013-08-04 12:35:00,
2013-08-04 07:40:00,59.3,58.5,30.16,NNE,22,0.0,2.0,97,0.00,,---,0.00,VWS V14.01,2013-08-04 12:40:00,
2013-08-04 07:45:00,59.7,58.8,30.16,NNE,22,0.0,4.0,97,0.00,,---,0.00,VWS V14.01,2013-08-04 12:45:00,
2013-08-04 07:50:00,60.2,59.3,30.16,NNE,22,0.0,5.0,97,0.00,,---,0.00,VWS V14.01,2013-08-04 12:50:00,
2013-08-04 07:55:00,60.6,59.8,30.16,NNE,22,0.0,5.0,97,0.00,,---,0.00,VWS V14.01,2013-08-04 12:55:00,
2013-08-04 08:00:00,61.0,59.9,30.16,NNE,22,2.0,2.0,96,0.00,,---,0.00,VWS V14.01,2013-08-04 13:00:00,
2013-08-04 08:05:00,61.4,60.2,30.16,NNE,20,0.0,5.0,96,0.00,,---,0.00,VWS V14.01,2013-08-04 13:05:00,
2013-08-04 08:10:00,61.8,60.4,30.16,NNE,20,0.0,5.0,95,0.00,,---,0.00,VWS V14.01,2013-08-04 13:10:00,
2013-08-04 08:15:00,62.3,60.8,30.16,North,5,2.0,5.0,95,0.00,,---,0.00,VWS V14.01,2013-08-04 13:15:00,
2013-08-04 08:20:00,62.9,61.2,30.16,North,11,0.0,5.0,94,0.00,,---,0.00,VWS V14.01,2013-08-04 13:20:00,
2013-08-04 08:25:00,63.4,61.3,30.16,NNE,31,0.0,5.0,93,0.00,,---,0.00,VWS V14.01,2013-08-04 13:25:00,
2013-08-04 08:30:00,63.8,61.1,30.16,NNE,31,1.0,1.0,91,0.00,,---,0.00,VWS V14.01,2013-08-04 13:30:00,
2013-08-04 08:31:00,63.8,61.1,30.16,NNE,31,2.0,2.0,91,0.00,,---,0.00,VWS V14.01,2013-08-04 13:31:00,
2013-08-04 08:36:00,64.3,60.7,30.16,NE,55,0.0,3.0,88,0.00,,---,0.00,VWS V14.01,2013-08-04 13:36:00,
2013-08-04 08:40:00,65.3,60.3,30.16,ENE,69,1.0,5.0,84,0.00,,---,0.00,VWS V14.01,2013-08-04 13:40:00,
2013-08-04 08:46:00,66.2,60.2,30.16,NNE,32,2.0,5.0,81,0.00,,---,0.00,VWS V14.01,2013-08-04 13:46:00,
2013-08-04 08:50:00,66.8,60.1,30.16,NE,51,2.0,5.0,79,0.00,,---,0.00,VWS V14.01,2013-08-04 13:50:00,
2013-08-04 08:56:00,67.5,60.4,30.16,NE,34,0.0,7.0,78,0.00,,---,0.00,VWS V14.01,2013-08-04 13:56:00,
2013-08-04 09:00:00,68.0,60.9,30.16,ENE,71,1.0,7.0,78,0.00,,---,0.00,VWS V14.01,2013-08-04 14:00:00,
2013-08-04 09:01:00,68.2,60.7,30.16,ENE,71,0.0,2.0,77,0.00,,---,0.00,VWS V14.01,2013-08-04 14:01:00,
2013-08-04 09:05:00,68.9,61.4,30.16,ENE,71,0.0,4.0,77,0.00,,---,0.00,VWS V14.01,2013-08-04 14:05:00,
2013-08-04 09:10:00,69.4,61.9,30.16,ENE,68,1.0,4.0,77,0.00,,---,0.00,VWS V14.01,2013-08-04 14:10:00,
2013-08-04 09:15:00,70.0,62.1,30.16,NE,34,0.0,6.0,76,0.00,,---,0.00,VWS V14.01,2013-08-04 14:15:00,
2013-08-04 09:20:00,70.2,61.9,30.16,NNE,33,0.0,6.0,75,0.00,,---,0.00,VWS V14.01,2013-08-04 14:20:00,
2013-08-04 09:26:00,70.6,61.9,30.16,ENE,67,0.0,6.0,74,0.00,,---,0.00,VWS V14.01,2013-08-04 14:26:00,
2013-08-04 09:30:00,71.0,62.7,30.16,ENE,67,4.0,4.0,75,0.00,,---,0.00,VWS V14.01,2013-08-04 14:30:00,
2013-08-04 09:35:00,70.9,61.4,30.17,East,79,1.0,5.0,72,0.00,,---,0.00,VWS V14.01,2013-08-04 14:35:00,
2013-08-04 09:40:00,70.9,61.4,30.17,NNE,29,5.0,5.0,72,0.00,,---,0.00,VWS V14.01,2013-08-04 14:40:00,
2013-08-04 09:45:00,71.1,62.0,30.17,NNE,30,0.0,5.0,73,0.00,,---,0.00,VWS V14.01,2013-08-04 14:45:00,
2013-08-04 09:50:00,71.7,62.6,30.17,NE,35,0.0,5.0,73,0.00,,---,0.00,VWS V14.01,2013-08-04 14:50:00,
2013-08-04 09:55:00,72.1,62.2,30.17,North,5,0.0,5.0,71,0.00,,---,0.00,VWS V14.01,2013-08-04 14:55:00,
2013-08-04 10:00:00,72.3,62.0,30.17,NE,56,1.0,4.0,70,0.00,,---,0.00,VWS V14.01,2013-08-04 15:00:00,
2013-08-04 10:05:00,72.9,61.3,30.17,ENE,71,0.0,5.0,67,0.00,,---,0.00,VWS V14.01,2013-08-04 15:05:00,
2013-08-04 10:10:00,73.2,61.6,30.17,ENE,78,1.0,5.0,67,0.00,,---,0.00,VWS V14.01,2013-08-04 15:10:00,
2013-08-04 10:15:00,73.4,62.2,30.17,NE,40,0.0,5.0,68,0.00,,---,0.00,VWS V14.01,2013-08-04 15:15:00,
2013-08-04 10:20:00,73.5,62.3,30.17,NE,40,0.0,5.0,68,0.00,,---,0.00,VWS V14.01,2013-08-04 15:20:00,
2013-08-04 10:25:00,73.7,63.3,30.17,NE,40,0.0,5.0,70,0.00,,---,0.00,VWS V14.01,2013-08-04 15:25:00,
2013-08-04 10:30:00,74.4,63.6,30.17,NE,40,0.0,0.0,69,0.00,,---,0.00,VWS V14.01,2013-08-04 15:30:00,
2013-08-04 10:35:00,74.8,63.5,30.17,NE,43,0.0,2.0,68,0.00,,---,0.00,VWS V14.01,2013-08-04 15:35:00,
2013-08-04 10:40:00,75.1,61.7,30.17,SE,132,5.0,5.0,63,0.00,,---,0.00,VWS V14.01,2013-08-04 15:40:00,
2013-08-04 10:45:00,75.4,62.4,30.17,ESE,119,0.0,5.0,64,0.00,,---,0.00,VWS V14.01,2013-08-04 15:45:00,
2013-08-04 10:50:00,75.5,60.7,30.17,ESE,119,0.0,5.0,60,0.00,,---,0.00,VWS V14.01,2013-08-04 15:50:00,
2013-08-04 10:55:00,75.5,61.1,30.17,ESE,119,0.0,5.0,61,0.00,,---,0.00,VWS V14.01,2013-08-04 15:55:00,
2013-08-04 11:00:00,75.4,62.4,30.17,ESE,118,0.0,2.0,64,0.00,,---,0.00,VWS V14.01,2013-08-04 16:00:00,
2013-08-04 11:05:00,75.6,60.3,30.17,North,355,0.0,5.0,59,0.00,,---,0.00,VWS V14.01,2013-08-04 16:05:00,
2013-08-04 11:10:00,75.5,59.2,30.17,North,355,0.0,5.0,57,0.00,,---,0.00,VWS V14.01,2013-08-04 16:10:00,
2013-08-04 11:15:00,76.0,59.2,30.17,East,96,1.0,5.0,56,0.00,,---,0.00,VWS V14.01,2013-08-04 16:15:00,
2013-08-04 11:20:00,76.6,60.2,30.17,East,96,0.0,5.0,57,0.00,,---,0.00,VWS V14.01,2013-08-04 16:20:00,
2013-08-04 11:25:00,77.0,58.6,30.17,East,99,1.0,5.0,53,0.00,,---,0.00,VWS V14.01,2013-08-04 16:25:00,
2013-08-04 11:30:00,77.1,56.5,30.17,East,99,0.0,1.0,49,0.00,,---,0.00,VWS V14.01,2013-08-04 16:30:00,
2013-08-04 11:35:00,77.3,58.8,30.17,East,99,0.0,2.0,53,0.00,,---,0.00,VWS V14.01,2013-08-04 16:35:00,
2013-08-04 11:40:00,77.5,61.6,30.17,East,99,0.0,2.0,58,0.00,,---,0.00,VWS V14.01,2013-08-04 16:40:00,
2013-08-04 11:45:00,77.5,60.1,30.17,East,99,0.0,2.0,55,0.00,,---,0.00,VWS V14.01,2013-08-04 16:45:00,
2013-08-04 11:50:00,77.5,58.0,30.17,ESE,102,0.0,2.0,51,0.00,,---,0.00,VWS V14.01,2013-08-04 16:50:00,
2013-08-04 11:55:00,77.5,60.1,30.17,SE,124,0.0,3.0,55,0.00,,---,0.00,VWS V14.01,2013-08-04 16:55:00,
2013-08-04 12:00:00,77.6,56.4,30.17,East,81,0.0,2.0,48,0.00,,---,0.00,VWS V14.01,2013-08-04 17:00:00,
2013-08-04 12:05:00,77.6,57.5,30.17,North,5,1.0,4.0,50,0.00,,---,0.00,VWS V14.01,2013-08-04 17:05:00,
2013-08-04 12:10:00,77.3,59.9,30.17,SSE,153,0.0,4.0,55,0.00,,---,0.00,VWS V14.01,2013-08-04 17:10:00,
2013-08-04 12:15:00,77.3,57.2,30.16,SSE,153,0.0,4.0,50,0.00,,---,0.00,VWS V14.01,2013-08-04 17:15:00,
2013-08-04 12:20:00,77.5,59.0,30.16,SSE,153,0.0,4.0,53,0.00,,---,0.00,VWS V14.01,2013-08-04 17:20:00,
2013-08-04 12:25:00,77.4,57.3,30.16,SSE,153,0.0,4.0,50,0.00,,---,0.00,VWS V14.01,2013-08-04 17:25:00,
2013-08-04 12:30:00,77.5,59.0,30.16,SSE,153,0.0,1.0,53,0.00,,---,0.00,VWS V14.01,2013-08-04 17:30:00,
2013-08-04 12:35:00,77.1,58.7,30.16,ENE,67,0.0,4.0,53,0.00,,---,0.00,VWS V14.01,2013-08-04 17:35:00,
2013-08-04 12:40:00,77.2,57.7,30.15,ENE,68,0.0,4.0,51,0.00,,---,0.00,VWS V14.01,2013-08-04 17:40:00,
2013-08-04 12:45:00,77.5,58.5,30.15,ENE,77,0.0,4.0,52,0.00,,---,0.00,VWS V14.01,2013-08-04 17:45:00,
2013-08-04 12:50:00,77.8,59.8,30.15,ENE,77,0.0,4.0,54,0.00,,---,0.00,VWS V14.01,2013-08-04 17:50:00,
2013-08-04 12:55:00,78.2,62.2,30.15,East,97,1.0,4.0,58,0.00,,---,0.00,VWS V14.01,2013-08-04 17:55:00,
2013-08-04 13:00:00,78.3,56.4,30.15,ESE,109,0.0,1.0,47,0.00,,---,0.00,VWS V14.01,2013-08-04 18:00:00,
2013-08-04 13:05:00,78.6,57.3,30.15,ESE,108,0.0,1.0,48,0.00,,---,0.00,VWS V14.01,2013-08-04 18:05:00,
2013-08-04 13:10:00,78.3,57.6,30.15,ESE,110,0.0,1.0,49,0.00,,---,0.00,VWS V14.01,2013-08-04 18:10:00,
2013-08-04 13:15:00,78.3,60.3,30.15,ESE,110,0.0,2.0,54,0.00,,---,0.00,VWS V14.01,2013-08-04 18:15:00,
2013-08-04 13:20:00,78.7,59.6,30.14,ESE,113,0.0,2.0,52,0.00,,---,0.00,VWS V14.01,2013-08-04 18:20:00,
2013-08-04 13:25:00,78.7,58.0,30.14,East,80,1.0,4.0,49,0.00,,---,0.00,VWS V14.01,2013-08-04 18:25:00,
2013-08-04 13:30:00,78.7,59.6,30.14,NW,315,0.0,1.0,52,0.00,,---,0.00,VWS V14.01,2013-08-04 18:30:00,
2013-08-04 13:35:00,78.5,57.2,30.14,NW,324,1.0,1.0,48,0.00,,---,0.00,VWS V14.01,2013-08-04 18:35:00,
2013-08-04 13:40:00,78.5,58.9,30.14,NNW,337,2.0,2.0,51,0.00,,---,0.00,VWS V14.01,2013-08-04 18:40:00,
2013-08-04 13:45:00,78.7,58.5,30.14,NNW,331,0.0,2.0,50,0.00,,---,0.00,VWS V14.01,2013-08-04 18:45:00,
2013-08-04 13:50:00,78.7,58.5,30.14,SSE,160,0.0,5.0,50,0.00,,---,0.00,VWS V14.01,2013-08-04 18:50:00,
2013-08-04 13:55:00,78.8,56.9,30.14,SSE,160,0.0,5.0,47,0.00,,---,0.00,VWS V14.01,2013-08-04 18:55:00,
2013-08-04 14:00:00,78.9,56.4,30.14,South,178,1.0,4.0,46,0.00,,---,0.00,VWS V14.01,2013-08-04 19:00:00,
2013-08-04 14:05:00,79.3,56.8,30.13,South,178,0.0,4.0,46,0.00,,---,0.00,VWS V14.01,2013-08-04 19:05:00,
2013-08-04 14:10:00,79.5,59.2,30.13,South,178,1.0,4.0,50,0.00,,---,0.00,VWS V14.01,2013-08-04 19:10:00,
2013-08-04 14:15:00,80.1,59.2,30.14,South,178,0.0,4.0,49,0.00,,---,0.00,VWS V14.01,2013-08-04 19:15:00,
2013-08-04 14:20:00,80.2,57.6,30.13,South,178,0.0,4.0,46,0.00,,---,0.00,VWS V14.01,2013-08-04 19:20:00,
2013-08-04 14:25:00,80.2,58.2,30.13,South,178,0.0,4.0,47,0.00,,---,0.00,VWS V14.01,2013-08-04 19:25:00,
2013-08-04 14:30:00,80.2,59.9,30.13,NNE,26,4.0,5.0,50,0.00,,---,0.00,VWS V14.01,2013-08-04 19:30:00,
2013-08-04 14:35:00,79.8,58.4,30.13,North,355,2.0,6.0,48,0.00,,---,0.00,VWS V14.01,2013-08-04 19:35:00,
2013-08-04 14:40:00,79.4,59.2,30.13,NNE,22,1.0,6.0,50,0.00,,---,0.00,VWS V14.01,2013-08-04 19:40:00,
2013-08-04 14:45:00,78.7,58.5,30.12,ENE,58,0.0,6.0,50,0.00,,---,0.00,VWS V14.01,2013-08-04 19:45:00,
2013-08-04 14:50:00,78.4,58.2,30.12,ENE,59,0.0,6.0,50,0.00,,---,0.00,VWS V14.01,2013-08-04 19:50:00,
2013-08-04 14:55:00,78.4,59.3,30.12,ENE,59,0.0,6.0,52,0.00,,---,0.00,VWS V14.01,2013-08-04 19:55:00,
2013-08-04 15:00:00,79.1,60.5,30.12,ENE,59,0.0,0.0,53,0.00,,---,0.00,VWS V14.01,2013-08-04 20:00:00,
2013-08-04 15:05:00,79.6,61.5,30.12,SE,128,0.0,5.0,54,0.00,,---,0.00,VWS V14.01,2013-08-04 20:05:00,
2013-08-04 15:10:00,80.1,59.8,30.12,SE,126,0.0,5.0,50,0.00,,---,0.00,VWS V14.01,2013-08-04 20:10:00,
2013-08-04 15:15:00,80.3,59.4,30.12,NE,48,0.0,5.0,49,0.00,,---,0.00,VWS V14.01,2013-08-04 20:15:00,
2013-08-04 15:20:00,80.5,62.3,30.12,NE,48,1.0,5.0,54,0.00,,---,0.00,VWS V14.01,2013-08-04 20:20:00,
2013-08-04 15:25:00,80.8,62.1,30.12,NE,47,1.0,5.0,53,0.00,,---,0.00,VWS V14.01,2013-08-04 20:25:00,
2013-08-04 15:30:00,80.7,59.2,30.12,ENE,58,1.0,1.0,48,0.00,,---,0.00,VWS V14.01,2013-08-04 20:30:00,
2013-08-04 15:35:00,80.7,61.5,30.12,ENE,58,0.0,1.0,52,0.00,,---,0.00,VWS V14.01,2013-08-04 20:35:00,
2013-08-04 15:40:00,80.7,61.5,30.12,ENE,58,0.0,1.0,52,0.00,,---,0.00,VWS V14.01,2013-08-04 20:40:00,
2013-08-04 15:45:00,80.8,62.1,30.12,ENE,58,0.0,1.0,53,0.00,,---,0.00,VWS V14.01,2013-08-04 20:45:00,
2013-08-04 15:50:00,80.9,61.6,30.12,ENE,58,0.0,1.0,52,0.00,,---,0.00,VWS V14.01,2013-08-04 20:50:00,
2013-08-04 15:55:00,80.8,59.9,30.12,NNE,20,1.0,1.0,49,0.00,,---,0.00,VWS V14.01,2013-08-04 20:55:00,
2013-08-04 16:00:00,80.4,61.7,30.12,North,360,0.0,6.0,53,0.00,,---,0.00,VWS V14.01,2013-08-04 21:00:00,
2013-08-04 16:05:00,79.7,60.0,30.12,North,5,5.0,6.0,51,0.00,,---,0.00,VWS V14.01,2013-08-04 21:05:00,
2013-08-04 16:10:00,79.1,58.3,30.12,North,355,0.0,6.0,49,0.00,,---,0.00,VWS V14.01,2013-08-04 21:10:00,
2013-08-04 16:15:00,79.2,58.4,30.12,NNW,345,0.0,6.0,49,0.00,,---,0.00,VWS V14.01,2013-08-04 21:15:00,
2013-08-04 16:20:00,79.7,60.0,30.11,NNW,345,0.0,6.0,51,0.00,,---,0.00,VWS V14.01,2013-08-04 21:20:00,
2013-08-04 16:25:00,79.9,60.2,30.11,NNW,345,0.0,6.0,51,0.00,,---,0.00,VWS V14.01,2013-08-04 21:25:00,
2013-08-04 16:30:00,79.8,60.1,30.11,NNW,348,1.0,1.0,51,0.00,,---,0.00,VWS V14.01,2013-08-04 21:30:00,
2013-08-04 16:35:00,79.8,60.6,30.11,NNW,348,0.0,1.0,52,0.00,,---,0.00,VWS V14.01,2013-08-04 21:35:00,
2013-08-04 16:40:00,79.4,58.0,30.11,NE,44,0.0,2.0,48,0.00,,---,0.00,VWS V14.01,2013-08-04 21:40:00,
2013-08-04 16:45:00,79.4,56.8,30.11,NE,44,0.0,2.0,46,0.00,,---,0.00,VWS V14.01,2013-08-04 21:45:00,
2013-08-04 16:49:00,79.5,60.3,30.11,NE,44,0.0,2.0,52,0.00,,---,0.00,VWS V14.01,2013-08-04 21:49:00,
2013-08-04 16:54:00,79.6,57.6,30.10,NE,44,0.0,2.0,47,0.00,,---,0.00,VWS V14.01,2013-08-04 21:54:00,
2013-08-04 16:59:00,80.3,58.2,30.10,ESE,109,0.0,4.0,47,0.00,,---,0.00,VWS V14.01,2013-08-04 21:59:00,
2013-08-04 17:00:00,80.4,58.9,30.10,ESE,109,0.0,4.0,48,0.00,,---,0.00,VWS V14.01,2013-08-04 22:00:00,
2013-08-04 17:04:00,80.9,58.8,30.10,ESE,109,0.0,0.0,47,0.00,,---,0.00,VWS V14.01,2013-08-04 22:04:00,
2013-08-04 17:08:00,81.1,60.7,30.10,ESE,109,0.0,1.0,50,0.00,,---,0.00,VWS V14.01,2013-08-04 22:08:00,
2013-08-04 17:14:00,80.3,60.0,30.10,East,89,1.0,2.0,50,0.00,,---,0.00,VWS V14.01,2013-08-04 22:14:00,
2013-08-04 17:19:00,79.5,58.7,30.10,NE,46,0.0,2.0,49,0.00,,---,0.00,VWS V14.01,2013-08-04 22:19:00,
2013-08-04 17:23:00,78.9,58.7,30.09,NE,46,0.0,2.0,50,0.00,,---,0.00,VWS V14.01,2013-08-04 22:23:00,
2013-08-04 17:29:00,78.8,59.2,30.09,NE,46,1.0,2.0,51,0.00,,---,0.00,VWS V14.01,2013-08-04 22:29:00,
2013-08-04 17:30:00,78.8,59.2,30.09,NE,46,0.0,2.0,51,0.00,,---,0.00,VWS V14.01,2013-08-04 22:30:00,
2013-08-04 17:34:00,78.7,59.6,30.09,NE,46,0.0,2.0,52,0.00,,---,0.00,VWS V14.01,2013-08-04 22:34:00,
2013-08-04 17:39:00,78.7,60.2,30.09,NE,46,0.0,2.0,53,0.00,,---,0.00,VWS V14.01,2013-08-04 22:39:00,
2013-08-04 17:44:00,78.4,60.4,30.09,NE,46,0.0,2.0,54,0.00,,---,0.00,VWS V14.01,2013-08-04 22:44:00,
2013-08-04 17:49:00,77.9,62.0,30.09,NE,46,0.0,2.0,58,0.00,,---,0.00,VWS V14.01,2013-08-04 22:49:00,
2013-08-04 17:54:00,77.5,64.4,30.09,NE,46,0.0,2.0,64,0.00,,---,0.00,VWS V14.01,2013-08-04 22:54:00,
2013-08-04 17:58:00,77.2,63.2,30.09,NE,46,0.0,2.0,62,0.00,,---,0.00,VWS V14.01,2013-08-04 22:58:00,
2013-08-04 18:00:00,77.2,63.6,30.09,NE,46,0.0,2.0,63,0.00,,---,0.00,VWS V14.01,2013-08-04 23:00:00,
2013-08-04 18:03:00,76.9,62.9,30.09,NE,46,0.0,2.0,62,0.00,,---,0.00,VWS V14.01,2013-08-04 23:03:00,
2013-08-04 18:09:00,76.7,61.3,30.09,NE,46,0.0,2.0,59,0.00,,---,0.00,VWS V14.01,2013-08-04 23:09:00,
2013-08-04 18:14:00,76.6,61.2,30.09,NE,46,0.0,2.0,59,0.00,,---,0.00,VWS V14.01,2013-08-04 23:14:00,
2013-08-04 18:19:00,76.4,62.0,30.08,NE,46,0.0,2.0,61,0.00,,---,0.00,VWS V14.01,2013-08-04 23:19:00,
2013-08-04 18:24:00,76.2,61.3,30.08,NE,46,0.0,2.0,60,0.00,,---,0.00,VWS V14.01,2013-08-04 23:24:00,
2013-08-04 18:29:00,76.1,63.5,30.08,NE,46,0.0,2.0,65,0.00,,---,0.00,VWS V14.01,2013-08-04 23:29:00,
2013-08-04 18:30:00,76.1,63.5,30.08,NE,46,0.0,2.0,65,0.00,,---,0.00,VWS V14.01,2013-08-04 23:30:00,
2013-08-04 18:34:00,75.8,64.1,30.08,NE,46,0.0,1.0,67,0.00,,---,0.00,VWS V14.01,2013-08-04 23:34:00,
2013-08-04 18:39:00,75.6,65.9,30.08,NE,46,0.0,1.0,72,0.00,,---,0.00,VWS V14.01,2013-08-04 23:39:00,
2013-08-04 18:44:00,75.1,64.7,30.08,NE,46,0.0,1.0,70,0.00,,---,0.00,VWS V14.01,2013-08-04 23:44:00,
2013-08-04 18:49:00,74.7,63.9,30.08,NE,46,0.0,1.0,69,0.00,,---,0.00,VWS V14.01,2013-08-04 23:49:00,
2013-08-04 18:54:00,74.4,62.7,30.08,NE,46,0.0,1.0,67,0.00,,---,0.00,VWS V14.01,2013-08-04 23:54:00,
2013-08-04 18:59:00,74.2,63.4,30.08,NE,46,0.0,1.0,69,0.00,,---,0.00,VWS V14.01,2013-08-04 23:59:00,
2013-08-04 19:00:00,74.2,63.4,30.08,NE,46,0.0,1.0,69,0.00,,---,0.00,VWS V14.01,2013-08-05 00:00:00,
2013-08-04 19:03:00,73.9,62.3,30.08,NE,46,0.0,1.0,67,0.00,,---,0.00,VWS V14.01,2013-08-05 00:03:00,
2013-08-04 19:09:00,73.6,64.4,30.08,NE,46,0.0,1.0,73,0.00,,---,0.00,VWS V14.01,2013-08-05 00:09:00,
2013-08-04 19:14:00,73.0,64.2,30.08,NE,46,0.0,1.0,74,0.00,,---,0.00,VWS V14.01,2013-08-05 00:14:00,
2013-08-04 19:19:00,72.3,63.6,30.08,NE,46,0.0,1.0,74,0.00,,---,0.00,VWS V14.01,2013-08-05 00:19:00,
2013-08-04 19:24:00,71.8,64.2,30.08,NE,46,0.0,1.0,77,0.00,,---,0.00,VWS V14.01,2013-08-05 00:24:00,
2013-08-04 19:29:00,71.5,64.3,30.08,NE,46,0.0,1.0,78,0.00,,---,0.00,VWS V14.01,2013-08-05 00:29:00,
2013-08-04 19:30:00,71.4,64.2,30.08,NE,46,0.0,1.0,78,0.00,,---,0.00,VWS V14.01,2013-08-05 00:30:00,
2013-08-04 19:34:00,71.2,64.7,30.08,NE,46,0.0,0.0,80,0.00,,---,0.00,VWS V14.01,2013-08-05 00:34:00,
2013-08-04 19:39:00,70.6,63.4,30.08,NE,46,0.0,0.0,78,0.00,,---,0.00,VWS V14.01,2013-08-05 00:39:00,
2013-08-04 19:44:00,70.4,64.3,30.08,NE,46,0.0,0.0,81,0.00,,---,0.00,VWS V14.01,2013-08-05 00:44:00,
2013-08-04 19:49:00,70.1,64.4,30.08,NE,46,0.0,0.0,82,0.00,,---,0.00,VWS V14.01,2013-08-05 00:49:00,
2013-08-04 19:53:00,69.8,64.4,30.08,NE,46,0.0,0.0,83,0.00,,---,0.00,VWS V14.01,2013-08-05 00:53:00,
2013-08-04 19:59:00,69.5,64.1,30.08,NE,46,0.0,0.0,83,0.00,,---,0.00,VWS V14.01,2013-08-05 00:59:00,
2013-08-04 20:00:00,69.5,64.1,30.08,NE,46,0.0,0.0,83,0.00,,---,0.00,VWS V14.01,2013-08-05 01:00:00,
2013-08-04 20:04:00,69.1,64.1,30.08,NE,46,0.0,0.0,84,0.00,,---,0.00,VWS V14.01,2013-08-05 01:04:00,
2013-08-04 20:09:00,68.6,63.6,30.08,NE,46,0.0,0.0,84,0.00,,---,0.00,VWS V14.01,2013-08-05 01:09:00,
2013-08-04 20:14:00,68.2,63.2,30.08,NE,46,0.0,0.0,84,0.00,,---,0.00,VWS V14.01,2013-08-05 01:14:00,
2013-08-04 20:19:00,67.9,63.2,30.08,NE,46,0.0,0.0,85,0.00,,---,0.00,VWS V14.01,2013-08-05 01:19:00,
2013-08-04 20:24:00,67.5,62.8,30.08,NE,46,0.0,0.0,85,0.00,,---,0.00,VWS V14.01,2013-08-05 01:24:00,
2013-08-04 20:28:00,67.1,62.8,30.08,NE,46,0.0,0.0,86,0.00,,---,0.00,VWS V14.01,2013-08-05 01:28:00,
2013-08-04 20:30:00,67.1,62.8,30.08,NE,46,0.0,0.0,86,0.00,,---,0.00,VWS V14.01,2013-08-05 01:30:00,
2013-08-04 20:34:00,66.8,62.5,30.07,NE,46,0.0,0.0,86,0.00,,---,0.00,VWS V14.01,2013-08-05 01:34:00,
2013-08-04 20:38:00,66.7,62.7,30.08,NE,46,0.0,0.0,87,0.00,,---,0.00,VWS V14.01,2013-08-05 01:38:00,
2013-08-04 20:43:00,66.3,62.3,30.08,NE,46,0.0,0.0,87,0.00,,---,0.00,VWS V14.01,2013-08-05 01:43:00,
2013-08-04 20:49:00,66.1,62.1,30.08,NE,46,0.0,0.0,87,0.00,,---,0.00,VWS V14.01,2013-08-05 01:49:00,
2013-08-04 20:54:00,65.8,62.2,30.08,NE,46,0.0,0.0,88,0.00,,---,0.00,VWS V14.01,2013-08-05 01:54:00,
2013-08-04 20:59:00,65.5,61.9,30.08,NE,46,0.0,0.0,88,0.00,,---,0.00,VWS V14.01,2013-08-05 01:59:00,
2013-08-04 21:00:00,65.5,61.9,30.08,NE,46,0.0,0.0,88,0.00,,---,0.00,VWS V14.01,2013-08-05 02:00:00,
2013-08-04 21:04:00,65.3,61.7,30.08,NE,46,0.0,0.0,88,0.00,,---,0.00,VWS V14.01,2013-08-05 02:04:00,
2013-08-04 21:09:00,65.0,61.7,30.08,NE,46,0.0,0.0,89,0.00,,---,0.00,VWS V14.01,2013-08-05 02:09:00,
2013-08-04 21:14:00,64.8,61.5,30.08,NE,46,0.0,0.0,89,0.00,,---,0.00,VWS V14.01,2013-08-05 02:14:00,
2013-08-04 21:19:00,64.6,61.6,30.08,NE,46,0.0,0.0,90,0.00,,---,0.00,VWS V14.01,2013-08-05 02:19:00,
2013-08-04 21:24:00,64.4,61.4,30.08,NE,46,0.0,0.0,90,0.00,,---,0.00,VWS V14.01,2013-08-05 02:24:00,
2013-08-04 21:29:00,64.3,61.3,30.08,NE,46,0.0,0.0,90,0.00,,---,0.00,VWS V14.01,2013-08-05 02:29:00,
2013-08-04 21:30:00,64.3,61.3,30.08,NE,46,0.0,0.0,90,0.00,,---,0.00,VWS V14.01,2013-08-05 02:30:00,
2013-08-04 21:33:00,64.0,61.0,30.08,NE,46,0.0,0.0,90,0.00,,---,0.00,VWS V14.01,2013-08-05 02:33:00,
2013-08-04 21:39:00,63.8,60.8,30.09,NE,46,0.0,0.0,90,0.00,,---,0.00,VWS V14.01,2013-08-05 02:39:00,
2013-08-04 21:44:00,63.5,60.5,30.09,NE,46,0.0,0.0,90,0.00,,---,0.00,VWS V14.01,2013-08-05 02:44:00,
2013-08-04 21:49:00,63.4,60.7,30.09,NE,46,0.0,0.0,91,0.00,,---,0.00,VWS V14.01,2013-08-05 02:49:00,
2013-08-04 21:54:00,63.3,60.6,30.09,NE,46,0.0,0.0,91,0.00,,---,0.00,VWS V14.01,2013-08-05 02:54:00,
2013-08-04 21:59:00,63.2,60.5,30.09,NE,46,0.0,0.0,91,0.00,,---,0.00,VWS V14.01,2013-08-05 02:59:00,
2013-08-04 22:00:00,63.2,60.5,30.09,NE,46,0.0,0.0,91,0.00,,---,0.00,VWS V14.01,2013-08-05 03:00:00,
2013-08-04 22:04:00,63.0,60.3,30.09,NE,46,0.0,0.0,91,0.00,,---,0.00,VWS V14.01,2013-08-05 03:04:00,
2013-08-04 22:09:00,62.9,60.5,30.09,NE,46,0.0,0.0,92,0.00,,---,0.00,VWS V14.01,2013-08-05 03:09:00,
2013-08-04 22:14:00,62.8,60.5,30.08,NE,46,0.0,0.0,92,0.00,,---,0.00,VWS V14.01,2013-08-05 03:14:00,
2013-08-04 22:19:00,62.6,60.2,30.08,NE,46,0.0,0.0,92,0.00,,---,0.00,VWS V14.01,2013-08-05 03:19:00,
2013-08-04 22:24:00,62.5,60.2,30.09,NE,46,0.0,0.0,92,0.00,,---,0.00,VWS V14.01,2013-08-05 03:24:00,
2013-08-04 22:28:00,62.4,60.0,30.09,NE,46,0.0,0.0,92,0.00,,---,0.00,VWS V14.01,2013-08-05 03:28:00,
2013-08-04 22:30:00,62.4,60.0,30.09,NE,46,0.0,0.0,92,0.00,,---,0.00,VWS V14.01,2013-08-05 03:30:00,
2013-08-04 22:34:00,62.3,60.0,30.09,NE,46,0.0,0.0,92,0.00,,---,0.00,VWS V14.01,2013-08-05 03:34:00,
2013-08-04 22:39:00,62.2,59.8,30.09,NE,46,0.0,0.0,92,0.00,,---,0.00,VWS V14.01,2013-08-05 03:39:00,
2013-08-04 22:43:00,62.1,59.8,30.09,NE,46,0.0,0.0,92,0.00,,---,0.00,VWS V14.01,2013-08-05 03:43:00,
2013-08-04 22:48:00,62.0,60.0,30.09,NE,46,0.0,0.0,93,0.00,,---,0.00,VWS V14.01,2013-08-05 03:48:00,
2013-08-04 22:53:00,61.9,59.9,30.09,NE,46,0.0,0.0,93,0.00,,---,0.00,VWS V14.01,2013-08-05 03:53:00,
2013-08-04 22:58:00,61.8,59.8,30.08,NE,46,0.0,0.0,93,0.00,,---,0.00,VWS V14.01,2013-08-05 03:58:00,
2013-08-04 23:00:00,61.8,59.8,30.08,NE,46,0.0,0.0,93,0.00,,---,0.00,VWS V14.01,2013-08-05 04:00:00,
2013-08-04 23:01:00,61.8,59.8,30.09,NE,46,0.0,0.0,93,0.00,,---,0.00,VWS V14.01,2013-08-05 04:01:00,
2013-08-04 23:02:00,61.7,59.7,30.09,NE,46,0.0,0.0,93,0.00,,---,0.00,VWS V14.01,2013-08-05 04:02:00,
2013-08-04 23:07:00,61.6,59.6,30.08,NE,46,0.0,0.0,93,0.00,,---,0.00,VWS V14.01,2013-08-05 04:07:00,
2013-08-04 23:12:00,61.5,59.5,30.08,NE,46,0.0,0.0,93,0.00,,---,0.00,VWS V14.01,2013-08-05 04:12:00,
2013-08-04 23:16:00,61.4,59.4,30.08,NE,46,0.0,0.0,93,0.00,,---,0.00,VWS V14.01,2013-08-05 04:16:00,
2013-08-04 23:22:00,61.3,59.3,30.08,NE,46,0.0,0.0,93,0.00,,---,0.00,VWS V14.01,2013-08-05 04:22:00,
2013-08-04 23:27:00,61.2,59.2,30.09,NE,46,0.0,0.0,93,0.00,,---,0.00,VWS V14.01,2013-08-05 04:27:00,
2013-08-04 23:30:00,61.2,59.2,30.09,NE,46,0.0,0.0,93,0.00,,---,0.00,VWS V14.01,2013-08-05 04:30:00,
2013-08-04 23:32:00,61.1,59.1,30.09,NE,46,0.0,0.0,93,0.00,,---,0.00,VWS V14.01,2013-08-05 04:32:00,
2013-08-04 23:37:00,61.1,59.1,30.09,NE,46,0.0,0.0,93,0.00,,---,0.00,VWS V14.01,2013-08-05 04:37:00,
2013-08-04 23:42:00,61.1,59.1,30.09,ENE,76,1.0,2.0,93,0.00,,---,0.00,VWS V14.01,2013-08-05 04:42:00,
2013-08-04 23:47:00,61.0,59.0,30.09,ENE,76,0.0,2.0,93,0.00,,---,0.00,VWS V14.01,2013-08-05 04:47:00,
2013-08-04 23:52:00,61.0,59.0,30.09,ENE,76,0.0,2.0,93,0.00,,---,0.00,VWS V14.01,2013-08-05 04:52:00,
2013-08-04 23:57:00,60.9,58.9,30.08,East,85,0.0,2.0,93,0.00,,---,0.00,VWS V14.01,2013-08-05 04:57:00,